Location: Alessandria
(44.9000°N, 8.6170°E)
Time: 01:53:31
(UTC+02:00)

ISS - Pass Details

Date: 15 May 2021
Orbit: 417 x 422 km, 51.6° (Epoch: 14 June)

Event Time Altitude Azimuth Distance (km) Brightness Sun altitude
Rises 05:16:08 0° 292° (WNW) 2,374 -0.3 -6.9°
Reaches altitude 10° 05:18:28 10° 278° (W) 1,506 -1.4 -6.6°
Maximum altitude 05:21:15 24° 223° (SW) 919 -2.6 -6.2°
Drops below altitude 10° 05:24:02 10° 167° (SSE) 1,499 -1.2 -5.8°
Sets 05:26:22 0° 153° (SSE) 2,360 0.0 -5.5°
